GW3329 Weather Reports


time (UTC)temp
C
wind
direction
speed
KPH
gust
KPH
rain 1hr
cm
rain 24hr
cm
rain mn
cm
humidity
%
barometer
mb
20260506051238 11 163 0.0 0.0 0.00 0.00 0.00 89 1020.4
20260506050736 11 163 0.0 0.0 0.00 0.00 0.00 88 1020.7
20260506050233 11 164 0.0 0.0 0.00 0.00 0.00 88 1020.5
20260506044723 12 140 0.0 0.0 0.00 0.00 0.00 87 1020.0
20260506044221 12 178 0.0 1.6 0.00 0.00 0.00 86 1020.0
20260506043718 12 219 0.0 3.2 0.00 0.00 0.00 87 1020.0
20260506043216 12 211 0.0 3.2 0.00 0.00 0.00 87 1020.0
20260506042714 12 186 3.2 3.2 0.00 0.00 0.00 87 1019.8
20260506042213 12 245 0.0 1.6 0.00 0.00 0.00 87 1019.8
20260506041711 12 247 1.6 3.2 0.00 0.00 0.00 87 1019.8
20260506041207 12 277 1.6 3.2 0.00 0.00 0.00 87 1019.8
20260506040705 12 239 1.6 3.2 0.00 0.00 0.00 86 1019.8
20260506040202 12 218 3.2 3.2 0.00 0.00 0.00 86 1019.4
20260506035658 12 220 0.0 3.2 0.00 0.00 0.00 86 1019.4
20260506035155 12 220 1.6 3.2 0.00 0.00 0.00 85 1019.3
20260506034651 12 217 0.0 3.2 0.00 0.00 0.00 85 1019.1
20260506034149 12 217 0.0 1.6 0.00 0.00 0.00 84 1019.1
20260506033646 12 213 1.6 3.2 0.00 0.00 0.00 83 1019.3
20260506033143 12 211 1.6 1.6 0.00 0.00 0.00 82 1019.0
20260506032640 13 260 0.0 3.2 0.00 0.00 0.00 82 1019.3
20260506032137 13 205 1.6 3.2 0.00 0.00 0.00 81 1019.1
20260506031634 13 181 0.0 1.6 0.00 0.00 0.00 80 1019.0
20260506031131 13 178 0.0 1.6 0.00 0.00 0.00 80 1018.6
20260506030630 13 178 0.0 0.0 0.00 0.00 0.00 79 1018.6
20260506030126 13 184 0.0 1.6 0.00 0.00 0.00 78 1018.8
20260506025623 13 179 0.0 1.6 0.00 0.00 0.00 78 1018.5
20260506025118 13 170 0.0 0.0 0.00 0.00 0.00 77 1018.7
20260506024616 14 167 1.6 4.8 0.00 0.00 0.00 76 1018.6
20260506024112 14 181 0.0 0.0 0.00 0.00 0.00 75 1018.4
20260506023608 14 338 0.0 3.2 0.00 0.00 0.00 75 1018.4
20260506023106 14 246 3.2 3.2 0.00 0.00 0.00 75 1018.2
20260506022603 14 120 1.6 3.2 0.00 0.00 0.00 75 1018.1
20260506022101 14 285 1.6 3.2 0.00 0.00 0.00 75 1018.4
20260506021558 14 233 3.2 3.2 0.00 0.00 0.00 75 1018.2
20260506021055 14 197 1.6 3.2 0.00 0.00 0.00 75 1018.2
20260506020553 14 183 0.0 4.8 0.00 0.00 0.00 75 1018.1
20260506020050 14 174 0.0 6.4 0.00 0.00 0.00 75 1018.1
20260506015548 14 158 3.2 6.4 0.00 0.00 0.00 75 1018.0
20260506015044 15 155 3.2 4.8 0.00 0.00 0.00 74 1018.2
20260506014542 15 162 0.0 0.0 0.00 0.00 0.00 74 1018.0
20260506014037 15 264 1.6 4.8 0.00 0.00 0.00 75 1017.9
20260506013536 15 194 8.0 11.3 0.00 0.00 0.00 74 1018.0
20260506013033 15 309 1.6 3.2 0.00 0.00 0.00 73 1017.9
20260506012529 15 172 3.2 9.7 0.00 0.00 0.00 72 1018.0
20260506012026 15 172 8.0 11.3 0.00 0.00 0.00 71 1018.1
20260506011524 16 109 1.6 9.7 0.00 0.00 0.00 71 1018.1
20260506011019 15 201 1.6 9.7 0.00 0.00 0.00 72 1018.0
20260506010514 15 256 6.4 12.9 0.00 0.00 0.00 72 1018.0
20260506010009 15 184 1.6 11.3 0.00 0.00 0.00 71 1018.1
20260506005507 15 231 3.2 17.7 0.00 0.00 0.00 72 1017.8
20260506005002 15 166 1.6 12.9 0.00 0.00 0.00 71 1017.8
20260506004500 15 262 0.0 4.8 0.00 0.00 0.00 71 1018.0
20260506003956 15 166 4.8 9.7 0.00 0.00 0.00 70 1017.9
20260506003453 15 152 1.6 9.7 0.00 0.00 0.00 71 1017.9
20260506002949 15 154 1.6 14.5 0.00 0.00 0.00 73 1017.9
20260506002445 15 103 6.4 12.9 0.00 0.00 0.00 73 1017.7
20260506001940 16 168 3.2 11.3 0.00 0.00 0.00 73 1017.9
20260506001438 16 205 3.2 11.3 0.00 0.00 0.00 74 1017.6
20260506000935 16 176 9.7 22.5 0.00 0.00 0.00 73 1017.9
20260506000432 16 179 6.4 14.5 0.00 0.00 0.00 70 1017.8
20260505235929 16 156 6.4 20.9 0.00 0.00 0.00 69 1017.7
20260505235428 16 208 4.8 11.3 0.00 0.00 0.00 68 1017.6
20260505234924 16 202 6.4 24.1 0.00 0.00 0.00 66 1017.6
20260505234421 17 198 9.7 14.5 0.00 0.00 0.00 62 1017.6
20260505233918 17 218 6.4 9.7 0.00 0.00 0.00 61 1017.5
20260505233416 17 253 8.0 20.9 0.00 0.00 0.00 62 1017.9
20260505232913 17 219 3.2 12.9 0.00 0.00 0.00 62 1017.7
20260505232411 17 188 9.7 16.1 0.00 0.00 0.00 63 1017.7
20260505231907 17 190 8.0 16.1 0.00 0.00 0.00 64 1017.6
20260505231405 17 179 8.0 9.7 0.00 0.00 0.00 62 1017.6
20260505230903 17 173 8.0 11.3 0.00 0.00 0.00 61 1017.6
20260505230400 17 170 4.8 12.9 0.00 0.00 0.00 60 1017.5
20260505225856 17 228 4.8 6.4 0.00 0.00 0.00 62 1017.6
20260505225354 17 271 6.4 12.9 0.00 0.00 0.00 62 1017.7
20260505224849 17 41 3.2 9.7 0.00 0.00 0.00 61 1017.6
20260505224347 17 245 9.7 16.1 0.00 0.00 0.00 60 1018.0
20260505223844 18 314 6.4 14.5 0.00 0.00 0.00 56 1017.8
20260505223341 18 183 14.5 17.7 0.00 0.00 0.00 56 1017.7
20260505222836 20 331 3.2 6.4 0.00 0.00 0.00 54 1017.8
20260505222333 18 195 3.2 9.7 0.00 0.00 0.00 58 1017.9
20260505221830 18 274 11.3 12.9 0.00 0.00 0.00 58 1018.0
20260505221327 18 146 6.4 12.9 0.00 0.00 0.00 59 1017.9
20260505220824 18 169 6.4 14.5 0.00 0.00 0.00 60 1017.7
20260505220321 18 263 12.9 17.7 0.00 0.00 0.00 58 1017.9
20260505215819 18 272 3.2 11.3 0.00 0.00 0.00 61 1018.0
20260505215316 18 188 6.4 22.5 0.00 0.00 0.00 57 1018.0
20260505214814 18 188 4.8 12.9 0.00 0.00 0.00 56 1018.1
20260505214311 18 209 8.0 16.1 0.00 0.00 0.00 58 1018.2
20260505213808 18 248 6.4 22.5 0.00 0.00 0.00 57 1018.2
20260505213306 18 219 9.7 11.3 0.00 0.00 0.00 56 1018.3
20260505212801 20 253 11.3 17.7 0.00 0.00 0.00 54 1018.0
20260505212259 18 274 1.6 14.5 0.00 0.00 0.00 55 1018.3
20260505211755 19 224 9.7 25.7 0.00 0.00 0.00 54 1018.0
20260505211253 19 183 8.0 12.9 0.00 0.00 0.00 53 1018.0
20260505210749 19 211 8.0 17.7 0.00 0.00 0.00 52 1018.0
20260505210246 20 310 6.4 12.9 0.00 0.00 0.00 53 1018.2
20260505205743 19 322 4.8 12.9 0.00 0.00 0.00 52 1018.2
20260505205242 18 233 11.3 22.5 0.00 0.00 0.00 53 1018.1
20260505204738 18 213 6.4 22.5 0.00 0.00 0.00 54 1018.2
20260505204236 18 241 6.4 17.7 0.00 0.00 0.00 55 1018.0
20260505203733 18 163 1.6 9.7 0.00 0.00 0.00 54 1018.1
20260505203230 18 163 6.4 14.5 0.00 0.00 0.00 53 1018.2
20260505202725 19 278 6.4 11.3 0.00 0.00 0.00 52 1018.1
20260505202222 19 180 4.8 11.3 0.00 0.00 0.00 52 1018.1
20260505201718 20 193 4.8 6.4 0.00 0.00 0.00 50 1018.0
20260505201216 20 182 4.8 6.4 0.00 0.00 0.00 50 1017.8
20260505200714 20 136 4.8 11.3 0.00 0.00 0.00 50 1018.2
20260505200211 19 162 3.2 12.9 0.00 0.00 0.00 54 1018.0
20260505195706 18 262 6.4 12.9 0.00 0.00 0.00 55 1018.1
20260505195204 18 263 3.2 9.7 0.00 0.00 0.00 53 1018.2
20260505194701 20 153 3.2 9.7 0.00 0.00 0.00 51 1018.3
20260505194156 19 185 3.2 16.1 0.00 0.00 0.00 53 1018.2
20260505193648 18 189 12.9 16.1 0.00 0.00 0.00 54 1018.1
20260505193145 20 213 4.8 22.5 0.00 0.00 0.00 54 1018.2
20260505192644 20 124 8.0 20.9 0.00 0.00 0.00 51 1018.5
20260505192141 20 161 1.6 9.7 0.00 0.00 0.00 54 1018.2
20260505191639 19 280 8.0 16.1 0.00 0.00 0.00 55 1018.1
20260505191137 20 208 3.2 12.9 0.00 0.00 0.00 54 1018.3
20260505190633 20 197 6.4 9.7 0.00 0.00 0.00 52 1018.2
20260505190132 19 222 4.8 9.7 0.00 0.00 0.00 55 1018.1
20260505185630 20 151 1.6 4.8 0.00 0.00 0.00 55 1018.3
20260505185126 20 183 3.2 4.8 0.00 0.00 0.00 53 1018.0
20260505184623 20 206 1.6 4.8 0.00 0.00 0.00 54 1018.3
20260505184120 19 11 1.6 6.4 0.00 0.00 0.00 56 1018.0
20260505183616 19 221 1.6 9.7 0.00 0.00 0.00 57 1018.3
20260505183114 18 248 6.4 9.7 0.00 0.00 0.00 57 1018.2
20260505182610 18 279 8.0 12.9 0.00 0.00 0.00 56 1018.3
20260505182107 18 106 1.6 6.4 0.00 0.00 0.00 58 1018.3
20260505181604 19 272 4.8 9.7 0.00 0.00 0.00 57 1018.2
20260505181101 18 236 4.8 11.3 0.00 0.00 0.00 59 1018.3
20260505180556 18 269 4.8 6.4 0.00 0.00 0.00 57 1017.9
20260505180055 18 243 9.7 12.9 0.00 0.00 0.00 61 1018.2
20260505175550 18 291 3.2 9.7 0.00 0.00 0.00 60 1018.2
20260505175047 18 327 1.6 6.4 0.00 0.00 0.00 59 1018.1
20260505174544 17 161 1.6 3.2 0.00 0.00 0.00 58 1018.0
20260505174040 18 40 3.2 4.8 0.00 0.00 0.00 59 1018.2
20260505173537 18 232 3.2 4.8 0.00 0.00 0.00 57 1018.1
20260505173033 17 182 3.2 11.3 0.00 0.00 0.00 57 1018.1
20260505172531 18 208 8.0 11.3 0.00 0.00 0.00 56 1018.1
20260505172027 17 216 0.0 11.3 0.00 0.00 0.00 58 1018.1
20260505171522 18 242 1.6 6.4 0.00 0.00 0.00 57 1018.0
20260505171020 17 94 0.0 1.6 0.00 0.00 0.00 60 1017.9
20260505170516 17 88 0.0 1.6 0.00 0.00 0.00 59 1017.9
20260505170013 17 121 0.0 1.6 0.00 0.00 0.00 60 1017.8
20260505165508 17 30 1.6 4.8 0.00 0.00 0.00 55 1017.8
20260505165004 17 283 8.0 11.3 0.00 0.00 0.00 56 1017.8
20260505164500 17 106 1.6 1.6 0.00 0.00 0.00 65 1018.0
20260505163958 16 82 0.0 1.6 0.00 0.00 0.00 66 1017.8
20260505163456 16 194 1.6 3.2 0.00 0.00 0.00 66 1017.8
20260505162956 16 200 0.0 1.6 0.00 0.00 0.00 66 1017.8
20260505162451 16 156 1.6 6.4 0.00 0.00 0.00 69 1017.9
20260505161948 16 244 0.0 3.2 0.00 0.00 0.00 68 1017.7
20260505161445 15 182 0.0 1.6 0.00 0.00 0.00 69 1017.7
20260505160942 15 145 1.6 4.8 0.00 0.00 0.00 67 1017.9
20260505160440 15 156 1.6 3.2 0.00 0.00 0.00 71 1017.5
20260505152916 13 212 1.6 1.6 0.00 0.00 0.00 81 1017.7
20260505152413 13 187 0.0 3.2 0.00 0.00 0.00 83 1017.8
20260505151908 13 146 0.0 1.6 0.00 0.00 0.00 82 1017.5
20260505151404 14 200 1.6 3.2 0.00 0.00 0.00 80 1017.6
20260505150901 14 61 0.0 6.4 0.00 0.00 0.00 81 1017.6
20260505150359 14 171 1.6 3.2 0.00 0.00 0.00 81 1017.5
20260505140323 10 171 0.0 0.0 0.00 0.00 0.00 95 1017.4
20260505130246 8 177 0.0 0.0 0.00 0.00 0.00 96 1017.1
20260505124736 8 177 0.0 0.0 0.00 0.00 0.00 96 1017.1
20260505124233 9 177 0.0 0.0 0.00 0.00 0.00 96 1017.3
20260505123729 9 177 0.0 0.0 0.00 0.00 0.00 96 1017.2
20260505123226 10 177 0.0 0.0 0.00 0.00 0.00 96 1017.0
20260505122723 10 177 0.0 0.0 0.00 0.00 0.00 96 1017.1
20260505122220 9 177 0.0 0.0 0.00 0.00 0.00 96 1017.2
20260505121716 9 177 0.0 0.0 0.00 0.00 0.00 96 1017.1
20260505121213 9 177 0.0 0.0 0.00 0.00 0.00 96 1017.1
20260505120710 9 177 0.0 0.0 0.00 0.00 0.00 96 1017.3
20260505120205 9 178 0.0 0.0 0.00 0.00 0.00 96 1017.1
20260505115659 9 178 0.0 0.0 0.00 0.00 0.00 95 1017.1
20260505115157 9 178 0.0 0.0 0.00 0.00 0.00 95 1017.1
20260505114654 10 179 0.0 0.0 0.00 0.00 0.00 95 1017.4
20260505114150 10 179 0.0 0.0 0.00 0.00 0.00 96 1017.1
20260505113647 10 179 0.0 0.0 0.00 0.00 0.00 95 1017.2
20260505113143 10 187 0.0 0.0 0.00 0.00 0.00 95 1017.0
20260505112640 10 185 0.0 0.0 0.00 0.00 0.00 95 1017.1
20260505112138 10 195 0.0 0.0 0.00 0.00 0.00 95 1017.3
20260505111637 10 207 0.0 0.0 0.00 0.00 0.00 95 1017.2
20260505111133 10 209 0.0 0.0 0.00 0.00 0.00 95 1017.3
20260505110630 10 208 0.0 0.0 0.00 0.00 0.00 95 1017.2
20260505110127 10 207 0.0 0.0 0.00 0.00 0.00 95 1017.2
20260505102103 11 213 0.0 0.0 0.00 0.00 0.00 93 1017.1
20260505101601 11 213 0.0 0.0 0.00 0.00 0.00 93 1017.3
20260505101057 11 214 0.0 0.0 0.00 0.00 0.00 93 1017.2
20260505100554 11 214 0.0 0.0 0.00 0.00 0.00 93 1017.1
20260505100050 11 214 0.0 0.0 0.00 0.00 0.00 92 1017.5
20260505095547 11 214 0.0 0.0 0.00 0.00 0.00 92 1017.4
20260505095043 11 183 0.0 0.0 0.00 0.00 0.00 92 1017.4
20260505094540 11 183 0.0 0.0 0.00 0.00 0.00 92 1017.3
20260505094036 11 181 0.0 0.0 0.00 0.00 0.00 92 1017.4
20260505093533 11 129 0.0 0.0 0.00 0.00 0.00 91 1017.5
20260505093030 11 129 0.0 0.0 0.00 0.00 0.00 91 1017.7
20260505092527 11 173 0.0 0.0 0.00 0.00 0.00 91 1017.5
20260505092026 11 174 0.0 0.0 0.00 0.00 0.00 91 1017.5
20260505091522 11 170 0.0 0.0 0.00 0.00 0.00 91 1017.6
20260505091020 11 172 0.0 0.0 0.00 0.00 0.00 90 1017.9
20260505090518 11 183 0.0 0.0 0.00 0.00 0.00 90 1017.9
20260505090016 11 178 0.0 0.0 0.00 0.00 0.00 90 1017.9
20260505085514 11 167 0.0 0.0 0.00 0.00 0.00 89 1018.0
20260505085011 11 167 0.0 0.0 0.00 0.00 0.00 89 1018.2
20260505084509 11 166 0.0 0.0 0.00 0.00 0.00 88 1018.1
20260505084007 11 182 0.0 0.0 0.00 0.00 0.00 88 1018.1
20260505083504 11 189 0.0 0.0 0.00 0.00 0.00 88 1017.9
20260505083000 12 189 0.0 0.0 0.00 0.00 0.00 87 1018.2
20260505082456 12 181 0.0 0.0 0.00 0.00 0.00 88 1018.4
20260505081953 12 182 0.0 0.0 0.00 0.00 0.00 87 1018.2
20260505081450 12 182 0.0 0.0 0.00 0.00 0.00 87 1018.4
20260505080946 12 185 0.0 0.0 0.00 0.00 0.00 87 1018.4
20260505080443 12 172 0.0 0.0 0.00 0.00 0.00 87 1018.2
20260505075938 12 170 0.0 0.0 0.00 0.00 0.00 88 1018.3
20260505075435 12 158 0.0 0.0 0.00 0.00 0.00 88 1018.6
20260505074933 12 159 0.0 0.0 0.00 0.00 0.00 88 1018.5
20260505074430 12 170 0.0 1.6 0.00 0.00 0.00 87 1018.5
20260505073927 12 170 0.0 0.0 0.00 0.00 0.00 87 1018.5
20260505073425 12 164 0.0 0.0 0.00 0.00 0.00 87 1018.4
20260505072921 12 165 0.0 1.6 0.00 0.00 0.00 86 1018.7
20260505072417 12 156 0.0 0.0 0.00 0.00 0.00 85 1018.7
20260505071914 12 167 0.0 0.0 0.00 0.00 0.00 84 1018.6
20260505071410 12 192 0.0 0.0 0.00 0.00 0.00 84 1018.3
20260505070908 12 168 0.0 0.0 0.00 0.00 0.00 84 1018.7
20260505070404 12 170 0.0 1.6 0.00 0.00 0.00 84 1018.6
20260505065900 12 174 1.6 3.2 0.00 0.00 0.00 84 1018.5
20260505065357 12 175 0.0 1.6 0.00 0.00 0.00 84 1018.6
20260505064854 12 171 0.0 1.6 0.00 0.00 0.00 85 1018.6
20260505064351 12 194 3.2 4.8 0.00 0.00 0.00 85 1018.8
20260505063850 12 200 0.0 1.6 0.00 0.00 0.00 85 1018.7
20260505063345 12 161 0.0 0.0 0.00 0.00 0.00 85 1018.4
20260505062842 12 190 1.6 3.2 0.00 0.00 0.00 84 1018.5
20260505062339 12 171 0.0 1.6 0.00 0.00 0.00 83 1018.5
20260505061836 12 184 1.6 3.2 0.00 0.00 0.00 82 1018.5
20260505061334 12 174 3.2 6.4 0.00 0.00 0.00 81 1018.9
20260505060831 12 171 1.6 1.6 0.00 0.00 0.00 84 1018.7
20260505060328 12 184 1.6 3.2 0.00 0.00 0.00 84 1018.7
20260505055824 12 172 3.2 3.2 0.00 0.00 0.00 85 1018.6
20260505055320 12 174 0.0 1.6 0.00 0.00 0.00 86 1018.6
20260505054817 12 192 6.4 9.7 0.00 0.00 0.00 86 1018.8
20260505054314 12 207 1.6 1.6 0.00 0.00 0.00 85 1018.8
20260505053813 12 159 0.0 1.6 0.00 0.00 0.00 86 1018.9
20260505053309 12 169 0.0 0.0 0.00 0.00 0.00 87 1018.8
20260505052806 12 149 0.0 3.2 0.00 0.00 0.00 86 1018.8
20260505052304 12 156 0.0 4.8 0.00 0.00 0.00 86 1018.9
20260505051800 12 167 0.0 1.6 0.00 0.00 0.00 85 1019.0